Flag for U.S.A. Weather past 2 weeks in Farmington, New Mexico, U.S.A.

Now
40 °F

Clear.


Feels Like: 36 °F
Forecast: 45 / 70 °F
Wind: 6 mph from Northeast

Location: Four Corners Regional Airport

Current Time: Oct 23, 2014 at 6:43:25 AM

Latest Report: Oct 23, 2014 at 5:53 AM


Visibility: 10 mi

Pressure: 30.17 "Hg

Humidity: 77%

Dew point: 33 °F

Location of FarmingtonLocation

Historic Weather in Farmington — Graph

°F

Farmington temperature yesterday

Maximum temperature yesterday: 71 °F (at 4:53 PM)
Minimum temperature yesterday: 43 °F (at 6:53 AM)
Average temperature yesterday: 55 °F

Past Weeks' High & Low Weather Summary

 TemperatureHumidityPressure
High77 °F (Oct 15, 3:53 PM)97% (Oct 9, 5:53 AM)30.28 "Hg (Oct 9, 5:53 AM)
Low35 °F (Oct 14, 6:53 AM)13% (Oct 12, 1:53 PM)29.72 "Hg (Oct 12, 11:53 AM)
Average55 °F55%30.03 "Hg
* Reported Oct 8 5:53 AM — Oct 23 5:53 AM, Farmington, Weather by CustomWeather, © 2014

Note: Actual official high and low records may vary slightly from our data, if they occured in-between our weather recording intervals... More about our weather records

Advertising

Farmington weather history for previous 24 hours

 ConditionsComfort  
Time TempWeatherWind HumidityBarometerVisibility
5:53 AM
Oct 23
40 °FClear.6 mph77%30.17 "Hg10 mi
4:53 AM43 °FClear.7 mph71%30.13 "Hg10 mi
3:53 AM44 °FClear.7 mph71%30.12 "Hg10 mi
2:53 AM45 °FClear.10 mph68%30.11 "Hg10 mi
1:53 AM45 °FClear.6 mph63%30.12 "Hg10 mi
12:53 AM47 °FClear.5 mph61%30.12 "Hg10 mi
11:53 PM
Oct 22
47 °FClear.7 mph59%30.12 "Hg10 mi
10:53 PM48 °FClear.7 mph54%30.12 "Hg10 mi
9:53 PM52 °FClear.3 mph49%30.11 "Hg10 mi
8:53 PM55 °FClear.3 mph45%30.11 "Hg10 mi
7:53 PM58 °FClear.5 mph41%30.10 "Hg10 mi
6:53 PM62 °FSunny.6 mph37%30.07 "Hg10 mi
5:53 PM68 °FSunny.9 mph30%30.04 "Hg10 mi
4:53 PM71 °FSunny.9 mph27%30.02 "Hg10 mi
3:53 PM70 °FSunny.No wind31%30.03 "Hg10 mi
2:53 PM70 °FSunny.5 mph30%30.03 "Hg10 mi
1:53 PM68 °FSunny.5 mph33%30.04 "Hg10 mi
12:53 PM65 °FSunny.3 mph42%30.07 "Hg10 mi
11:53 AM62 °FScattered clouds.7 mph48%30.10 "Hg10 mi
10:53 AM59 °FSunny.7 mph58%30.10 "Hg10 mi
9:53 AM54 °FPartly sunny.5 mph67%30.11 "Hg10 mi
8:53 AM49 °FSunny.6 mph77%30.11 "Hg10 mi
7:53 AM43 °FClear.5 mph89%30.08 "Hg10 mi
6:53 AM43 °FClear.6 mph89%30.06 "Hg10 mi
Weather by CustomWeather, © 2014

See weather overviewHow to use our weather pages